Regional Weather Roundup
Issued by NWS Charleston, SC

Current Version | Previous Version | Graphics & Text | Print | Product List | Glossary On
Versions: 1 2 3 4 5 6 7 8 9 10 11 12 13 14 15 16 17 18 19 20 21 22 23 24 25 26 27 28 29 30 31 32 33 34 35 36 37 38 39 40 41 42 43 44 45 46 47 48 49 50
000
ASUS42 KCHS 170627
RWRCHS

REGIONAL WEATHER ROUNDUP
NATIONAL WEATHER SERVICE CHARLESTON SC
200 AM EDT THU AUG 17 2017

NOTE: "FAIR" INDICATES FEW OR NO CLOUDS BELOW 12,000 FEET WITH NO
SIGNIFICANT WEATHER AND/OR OBSTRUCTIONS TO VISIBILITY.

NOT ALL STATIONS ARE QUALITY CONTROLLED. USE DATA WITH CAUTION...
ESPECIALLY DEWPOINT OBSERVATIONS.

SCZ027-030-031-034>040-042>050-170700-
...SOUTHEAST SOUTH CAROLINA...

CITY           SKY/WX    TMP DP  RH WIND       PRES   REMARKS
N CHARLESTON   PTCLDY    82  79  90 SW7       30.01F HX  92
6HR MIN TEMP:  81; 6HR MAX TEMP:  87;

WATERFRONT PRK   N/A    N/A N/A N/A SW5       29.86F
JOHNS ISLAND   FAIR      84  81  89 SW6       30.01F HX  98
PINOPOLIS        N/A     82  81  94 SW5       29.94F HX  95
MONCKS CORNER  FAIR      77  77 100 CALM      30.01F
SUMMERVILLE    FAIR      79  79 100 CALM      30.02F
BEAUFORT MCAS  CLEAR     82  81  96 SW5       30.01F HX  95
6HR MIN TEMP:  82; 6HR MAX TEMP:  88;

BEAUFORT ARPT  FAIR      82  79  89 SW3       30.01F HX  93
HILTON HEAD IS CLEAR     84  81  89 SW6       30.02F HX  98
WALTERBORO     CLEAR     81  79  94 CALM      30.02F
ALLENDALE      NOT AVBL

...SOUTHERN MIDLANDS AND PEE DEE...

CITY           SKY/WX    TMP DP  RH WIND       PRES   REMARKS
GEORGETOWN     FAIR      77  75  94 CALM      30.02F
KINGSTREE      FAIR      75  73  94 CALM      30.01F FOG
ORANGEBURG     CLEAR     78  75  90 CALM      30.01F
6HR MIN TEMP:  78; 6HR MAX TEMP:  88;

BARNWELL       FAIR      81  79  94 CALM      30.02S
AIKEN          FAIR      77  73  88 SW3       30.06S
MANNING        FAIR      77  75  94 N15G28    30.00F
COLUMBIA       PTCLDY    81  74  79 CALM      30.00F
6HR MIN TEMP:  81; 6HR MAX TEMP:  93;

SUMTER         CLEAR     77  74  91 NE5       29.99F
6HR MIN TEMP:  77; 6HR MAX TEMP:  88;

FLORENCE       CLEAR     77  76  96 CALM      30.02F
6HR MIN TEMP:  77; 6HR MAX TEMP:  81; 6HR PCP: TRACE;

MYRTLE BEACH   NOT AVBL
N MYRTLE BEACH MOCLDY    77  77 100 CALM      30.01F
6HR MIN TEMP:  77; 6HR MAX TEMP:  79;


$$

GAZ063-065-086>088-099>101-113>116-118-119-134>141-150-170700-
...SOUTHEAST GEORGIA...

CITY           SKY/WX    TMP DP  RH WIND       PRES   REMARKS
SAVANNAH ARPT  CLEAR     82  78  88 W6        30.03F HX  91
6HR MIN TEMP:  82; 6HR MAX TEMP:  89;

HUNTER AAF     CLEAR     82  78  89 SW6       30.00F HX  91
6HR MIN TEMP:  82; 6HR MAX TEMP:  89; 6HR PCP: TRACE;

FORT STEWART   CLEAR     80  76  87 CALM      30.00F
6HR MIN TEMP:  80; 6HR MAX TEMP:  90;

STATESBORO     CLEAR     80  74  83 CALM      30.02F
SYLVANIA       CLEAR     78  78 100 CALM      30.03F
CLAXTON        FAIR      78  77  96 CALM      30.02F

...CSRA...CENTRAL AND FAR SOUTHEAST GEORGIA...

CITY           SKY/WX    TMP DP  RH WIND       PRES   REMARKS
THOMSON        CLEAR     77  75  92 CALM      30.08F
AUGUSTA-BUSH   CLEAR     80  77  90 CALM      30.01F
6HR MIN TEMP:  79; 6HR MAX TEMP:  91;

AUGUSTA-DANIEL CLEAR     84  73  69 CALM      30.03F HX  90
SWAINSBORO     FAIR      79  77  94 CALM      30.03F
VIDALIA        CLEAR     79  77  94 CALM      30.04F
EASTMAN        FAIR      79  79 100 CALM      30.06F
HAZLEHURST     FAIR      81  68  64 CALM      30.03F
ALMA           CLEAR     78  75  90 CALM      30.04F
6HR MIN TEMP:  78; 6HR MAX TEMP:  91;

WAYCROSS       CLEAR     80  75  84 W3        30.04F
JESUP          FAIR      79  75  89 CALM      30.03F
BAXLEY         FAIR      77  77 100 CALM      30.03F
BRUNSWICK      CLEAR     81  73  78 SW5       30.03F
SAINT SIMONS   CLEAR     83  79  88 SW6       30.03F HX  94
6HR MIN TEMP:  83; 6HR MAX TEMP:  88;


$$

SCZ027-028-034-036>038-045-046-048>050-GAZ119-141-170700-
...LAKE AND SUPPLEMENTAL COASTAL OBSERVATIONS...

STATION/POSITION TIME  TEMP    WIND        PRES    WAVE   SWELL
                       AIR SEA DIR/SP/G            HT/PER HT/PER/DIR
                 (UTC) (F)     (DEG/KT/KT) (MB)    (FT/S) (FT/S/D)
WINYAH BAY       0545   80     270/  3     1016.0F
LAKE MURRAY      0620   83     280/  2/  3 1015.2
ACE BASIN NERRS  0545   82        CALM     1016.0F
FORT PULASKI     0600   83 86  240/  4/  5 1016.8
SAPELO ISLAND    0600   84        CALM     1017.0

$$

ANZ835-935-AMZ111-154-330-350-352-354-370-450-454-472-170700-
...C-MAN AND BUOY OBSERVATIONS...

STATION/POSITION TIME  TEMP    WIND        PRES    WAVE   SWELL
                       AIR SEA DIR/SP/G            HT/PER HT/PER/DIR
                 (UTC) (F)     (DEG/KT/KT) (MB)    (FT/S) (FT/S/D)
BUOY 41004       0610   84     230/  8/ 10 1016.7
BUOY 41008       0550   85 85  200/ 10/ 12 1016.4F   2/ 4   2/ 90/ 6
FOLLY BEACH CMAN 0600   85     230/  9/ 11 1016.7F
CAPERS NEARSHORE 0608   83 85  240/ 12/ 16 1015.8F
FRIPP NEARSHORE  0608   85     230/ 12/ 16 1015.7F


STATION/POSITION TIME  TEMP    WIND        PRES    WAVE   SWELL
                       AIR SEA DIR/SP/G            HT/PER HT/PER/DIR
                 (UTC) (F)     (DEG/KT/KT) (MB)    (FT/S) (FT/S/D)
5E ST. MARYS GA  0600      83                N/A     2/ 4
FRYING PAN BUOY  0610   83     170/  6/  6 1016.2
BUOY 41025       0550   80 83  360/  6/  8 1016.5F   2/ 7   2/100/ 7
CAPE LOOKOUT NC  0600   80        CALM     1016.7S
BUOY 41002       0550   81 84  310/ 14/ 17 1016.5F   3/ 6   2/140/ 7
BUOY 41010       0610   85     220/ 10/ 12 1017.5
ST AUGUSTINE FL  0600   79 81  230/  7/  8 1017.9F


$$



USA.gov is the U.S. government's official web portal to all federal, state and local government web resources and services.